Terminal Aerodrome Forecast
Issued by NWS State College, PA

Home | Current Version | Previous Version | Text Only | Print | Product List | Glossary On
Versions: 1 2 3 4 5 6 7 8 9 10 11 12 13 14 15 16 17 18 19 20 21 22 23 24 25 26 27 28 29 30 31 32 33 34 35 36 37 38 39 40 41 42 43 44 45 46 47 48
000
FTUS41 KCTP 292203 AAA
TAFIPT
TAF AMD
KIPT 292203Z 2922/3018 01005KT P6SM VCSH SCT050 BKN100
     FM300000 VRB03KT P6SM SCT100
     FM300500 00000KT 5SM HZ SCT250
     FM301200 34002KT P6SM SCT250
     FM301600 32002KT 5SM HZ VCTS BKN060CB=

USA.gov is the U.S. government's official web portal to all federal, state and local government web resources and services.